SCP
0 0 0 0 0 0 0 0 0 0 0 0 0 0 0 0 0 0 0 0 0 0 0 0 0 0 0 0 0 0 0 0 0 0 0 0 0 0 0 0 0 0 0
0 0 0 0 0 0 0 0 0 0 0 0 0 0 0 0 0 0 0 0 0 0 0 0 0 0 0 0 0 0 -0 0 0 0 0 0 0 0 0 0 0 0 0
0 0 0 0 0 0 0 0 0 0 0 0 0 0 0 0 -0 0 0 0 0 0 0 0 0 0 0 0 0 0 0 0 0 0 0 0 0 0 0 0 0 0 0
0 0 0 0 0 0 0 0 0 0 0 0 0 0 0 0 -0 -0 0 0 -0 0 -0 0 0 0 0 0 0 -0 0 0 0 0 0 0 0 0 0 0 0 0 0
0 0 0 0 0 0 0 0 0 0 0 0 0 0 0 0 0 0 0 -0 -0 0 0 -0 -0 0 0 0 0 -0 0 0 0 0 0 0 0 0 0 0 0 0 0
0 0 0 0 0 0 0 0 0 0 0 0 0 0 0 0 0 0 0 -0 0 0 0 -0 -0 -0 0 0 0 0 0 0 0 0 0 0 0 0 0 0 0 0 0
0 0 0 0 0 0 0 0 0 0 0 0 0 0 0 0 0 0 0 0 -0 -0 -0 0 -0 -0 0 0 -0 -0 0 0 0 0 0 0 0 0 0 0 0 0 0
0 0 0 0 0 0 0 0 0 0 0 0 0 0 0 0 0 0 0 -0 0 0 0 0 0 0 0 0 -0 0 0 0 0 0 0 0 0 0 0 0 0 0 0
0 0 0 0 0 0 0 0 0 0 0 0 0 0 0 0 0 -0 0 -0 -0 -0 -0 0 0 0 0 0 0 0 0 0 0 0 0 0 0 0 0 0 0 0 0
0 0 0 0 0 0 0 0 0 0 0 0 0 0 -0 0 0 -0 -0 0 0 0 0 0 0 0 0 0 0 0 0 0 0 0 0 0 0 0 0 0 0 0 0
0 0 0 0 0 0 0 0 0 0 0 0 0 0 0 -0 -0 0 0 0 0 0 0 0 0 0 0 0 0 0 0 0 0 0 0 0 0 0 0 0 0 0 0
0 0 0 0 0 0 0 0 0 0 0 0 0 0 0 0 0 0 0 -0 0 0 0 0 0 0 -0 -0 0 -0 0 0 0 0 0 0 0 0 0 0 0 0 0
0 0 0 0 0 0 0 0 0 0 0 0 0 0 0 0 0 0 0 0 0 0 0 0 0 0 -0 0 0 0 0 0 0 0 0 0 0 0 0 0 0 0 0
0 0 0 0 0 0 0 0 0 0 0 0 0 0 0 0 0 0 0 0 0 0 0 0 -0 0 -0 0 0 0 0 0 0 0 0 0 0 0 0 0 0 0 0
0 0 0 0 0 0 0 0 0 -0 0 0 0 0 0 0 0 0 0 0 0 0 0 0 0 0 0 0 0 0 0 0 0 0 0 0 0 0 0 0 -0 0 0
0 0 0 0 0 0 0 0 -0 -0 -0 -0 0 0 0 0 0 0 0 0 0 0 0 -0 -0 -0 -0 -0 -0 -0 0 0 -0 0 0 -0 -0 -0 0 0 0 0 0
0 0 0 0 0 0 0 0 0 -0 -0 -0 -0 -0 -0 0 -0 -0 -0 -0 -0 -0 -0 -0 -0 -0 -0 -0 -0 -0 -0 -0 -0 -0 -0 -0 -0 -0 -0 0 0 0 0
0 0 0 0 0 0 0 0 0 0 -0 0 -0 0 -0 -0 -0 -0 0 -0 0 0 -0 -0 -0 -0 -0 -0 -0 -0 -0 -0 0 -0 -0 -0 0 0 0 0 0 0 0
0 0 0 0 0 0 0 0 0 0 0 0 0 -0 -0 -0 0 -0 0 0 -0 -0 -0 -0 -0 -0 -0 -0 -0 -0 -0 0 0 0 0 0 0 0 0 0 0 0 0
0 0 0 0 0 0 0 0 0 0 0 0 0 0 0 0 0 0 0 0 0 0 0 0 0 0 0 0 -0 -0 -0 0 0 0 0 0 0 0 0 0 0 0 0
0 0 0 0 0 0 0 0 0 0 0 0 0 0 0 0 0 0 0 0 0 0 0 0 0 0 0 0 0 0 0 0 0 0 0 0 0 0 0 0 0 0 0
0 0 0 0 0 0 0 0 0 0 0 0 0 0 -0 0 0 0 0 0 0 0 0 0 0 0 0 0 0 0 0 0 0 0 0 0 0 0 0 0 0 0 0
0 0 0 0 0 0 0 0 0 0 0 0 0 0 0 0 0 0 0 0 0 0 0 0 0 0 0 0 0 0 0 0 0 0 0 0 0 0 0 0 0 0 0
0 0 0 0 0 0 0 0 0 0 0 0 0 0 0 0 0 0 0 0 0 0 0 0 0 0 0 0 0 0 0 0 0 0 0 0 0 0 0 0 0 0 0
0 0 0 0 0 0 0 0 0 0 0 0 0 0 0 0 0 0 0 0 0 0 0 0 0 0 0 0 0 0 0 0 0 0 0 0 0 0 0 0 0 0 0
0 0 0 0 0 0 0 0 0 0 0 0 0 0 0 0 0 0 0 0 0 0 0 0 0 0 0 0 0 0 0 0 0 0 0 0 0 0 0 0 0 0 0
Wind_Speed_500mb
78 84 88 83 75 70 72 76 76 80 82 83 84 86 85 83 76 77 79 79 80 79 79 94 98 79 80 75 79 77 81 84 66 78 86 87 91 89 81 84 89 92 88
77 82 83 81 76 72 71 71 74 80 81 85 88 86 87 86 86 85 86 82 81 82 82 81 89 98 87 87 78 79 81 94 91 94 90 93 94 89 89 88 83 77 78
73 77 78 76 72 68 69 70 72 75 76 77 78 80 80 83 83 81 83 87 85 87 85 82 78 77 81 81 68 70 81 86 109 107 100 102 102 97 95 85 81 74 58
71 74 75 70 67 68 67 67 69 72 76 77 77 78 77 78 77 75 76 78 84 90 90 84 85 84 91 81 77 67 74 89 111 107 109 113 112 100 97 95 79 67 69
65 69 68 67 67 66 67 71 73 74 73 75 75 73 71 68 68 70 73 75 77 85 87 94 91 93 88 91 81 66 76 98 110 109 119 117 117 116 110 97 92 90 80
59 62 63 64 67 67 67 70 73 74 79 79 72 66 59 53 54 59 70 76 80 82 93 93 93 94 90 93 78 76 73 103 126 122 126 132 127 113 113 109 104 101 81
54 58 60 63 67 65 67 69 72 75 73 67 62 62 55 52 52 49 54 48 56 69 77 83 93 96 102 91 82 88 68 116 129 128 126 132 130 124 116 112 106 105 92
49 54 55 60 64 62 65 67 70 69 61 55 67 71 64 55 47 38 21 7 15 31 49 61 71 80 79 71 64 61 87 78 99 118 113 120 118 119 116 119 119 100 95
43 48 52 57 61 60 65 65 63 59 52 55 62 65 81 66 47 45 59 58 44 36 19 26 42 45 56 79 73 89 89 77 76 88 103 116 114 119 126 122 106 97 90
38 42 46 50 54 55 60 59 54 47 49 56 60 61 65 79 70 57 67 77 84 82 84 74 76 84 93 91 97 107 98 89 88 96 106 106 109 104 83 69 76 77 78
30 35 38 40 46 51 53 53 50 49 58 67 74 74 71 71 76 80 82 90 95 101 99 92 85 87 94 101 116 116 120 114 111 111 102 87 81 81 77 71 66 61 73
22 27 30 32 37 40 44 46 49 52 59 66 74 82 86 88 89 92 98 104 105 108 105 102 105 108 107 106 107 102 100 106 115 117 113 106 98 89 81 71 62 56 37
13 18 22 25 28 33 36 40 44 52 61 64 68 74 79 84 87 87 92 99 104 109 110 115 121 124 128 131 131 130 127 124 121 119 114 103 90 84 73 61 55 41 27
6 10 12 16 19 23 24 29 35 45 51 49 52 56 59 63 72 82 86 87 90 93 95 97 100 104 109 114 113 111 111 107 105 103 95 86 77 68 60 49 46 43 43
16 8 5 6 11 17 18 20 30 33 37 40 43 48 56 63 65 60 60 65 69 75 79 83 87 88 89 88 87 86 83 82 83 83 81 77 69 60 55 49 45 43 40
24 16 11 4 5 10 13 12 19 20 23 27 31 36 43 47 48 50 53 55 55 59 68 74 77 78 80 78 77 73 69 67 67 64 64 62 60 55 54 47 40 37 36
32 25 19 17 12 3 7 10 8 6 12 15 21 25 31 36 39 41 44 45 48 48 64 66 67 66 66 64 63 61 60 57 54 52 51 50 48 45 41 43 41 36 38
43 34 28 23 22 20 14 12 11 6 6 5 7 13 19 24 28 32 36 33 39 46 52 54 56 55 54 52 50 49 49 48 44 43 42 40 37 35 38 38 35 33 32
53 46 36 30 28 25 24 22 19 16 12 7 4 3 9 13 16 19 23 25 29 33 37 40 41 41 42 40 39 39 38 38 34 32 33 32 32 30 33 32 32 28 24
58 55 47 39 35 32 30 28 24 20 15 12 9 5 2 1 6 8 11 14 16 17 22 22 27 29 29 29 28 27 26 24 23 23 23 24 27 26 24 26 26 25 25
64 65 58 49 43 36 33 32 30 27 21 17 14 13 12 11 8 4 1 1 2 5 8 13 14 16 17 19 19 16 15 15 16 17 18 20 21 26 25 25 26 24 21
70 71 65 60 49 44 39 34 33 29 25 23 21 18 18 18 16 14 11 10 8 6 6 8 10 11 10 10 11 10 10 10 12 16 19 22 23 25 27 28 27 23 19
74 76 70 67 58 50 46 40 37 33 28 23 22 20 17 15 17 15 13 13 13 14 14 15 17 16 14 12 10 9 8 9 12 15 17 20 23 26 27 26 22 19 16
72 76 73 72 68 61 55 50 44 37 33 29 27 24 19 15 15 14 14 15 14 14 16 18 20 21 18 14 12 15 19 20 19 17 17 18 20 22 23 23 21 23 21
67 71 74 77 75 70 62 59 54 46 42 38 34 30 26 24 22 19 19 19 18 18 17 19 22 23 23 21 21 23 23 20 18 20 23 26 26 28 29 29 28 28 26
60 63 67 71 75 72 69 63 57 52 48 45 41 36 34 33 31 29 28 27 25 25 24 21 24 30 32 34 31 28 27 25 23 24 25 27 28 31 32 31 30 27 23
Wind_Direction_500mb
328 330 330 331 327 320 317 314 308 308 306 301 298 296 292 290 283 280 278 278 272 267 261 250 252 249 247 254 256 251 242 242 217 201 204 198 197 199 192 193 196 194 197
331 333 334 334 332 330 322 318 319 312 308 308 305 299 294 291 289 284 278 274 270 266 262 256 250 246 250 251 256 254 244 245 210 200 189 186 191 191 190 191 188 188 186
335 337 337 337 338 334 330 327 322 320 319 317 312 305 300 295 289 282 275 273 268 265 260 253 247 243 243 251 248 249 247 213 206 205 183 180 184 185 182 182 185 184 180
340 340 341 343 342 339 336 334 334 333 330 327 321 315 310 304 296 287 279 272 269 263 258 253 248 246 244 250 252 248 246 208 198 200 186 179 181 177 184 179 165 167 160
342 343 347 346 346 343 345 346 343 340 335 331 327 322 316 310 303 298 289 279 268 263 260 256 248 244 241 246 249 238 229 204 193 186 174 171 173 173 175 171 166 162 157
344 348 352 350 350 348 354 350 348 345 343 339 340 339 334 325 317 302 289 276 264 258 252 250 248 245 241 243 249 237 250 215 195 190 178 176 174 171 177 178 176 164 147
345 354 356 354 352 354 359 354 354 351 350 348 359 359 359 350 337 320 300 289 263 254 253 249 246 243 244 248 242 231 234 216 216 210 191 185 180 184 182 176 174 171 166
349 357 359 357 354 2 3 2 359 358 354 2 3 12 17 5 358 8 22 316 253 245 245 245 243 242 237 231 223 213 194 187 196 205 210 195 187 185 186 179 175 172 158
354 1 5 2 1 10 10 6 4 2 6 13 14 30 32 25 23 48 60 61 75 84 116 218 228 217 197 197 192 178 176 169 167 175 175 174 176 174 182 180 164 154 152
355 4 10 7 11 20 18 13 13 17 22 31 37 44 48 45 42 60 72 71 66 65 81 95 124 139 151 164 163 169 148 137 154 151 144 142 154 156 159 169 160 163 159
356 7 13 12 25 31 35 28 29 31 44 48 49 50 55 61 64 67 71 74 73 73 68 72 88 115 127 132 135 144 136 134 136 136 134 132 136 143 148 153 158 161 160
355 15 19 24 32 34 45 40 43 47 49 54 57 58 58 58 62 70 77 81 85 79 77 80 88 100 110 114 113 114 123 125 122 122 125 127 136 141 147 151 152 162 161
357 23 29 32 36 44 51 58 56 53 49 49 53 55 59 62 62 62 69 75 80 86 93 101 106 109 111 112 114 114 116 117 122 126 130 136 142 144 144 145 149 152 153
308 14 29 35 34 39 46 66 59 55 50 37 35 43 49 53 57 55 59 62 70 77 85 92 97 101 105 112 113 115 117 123 126 127 130 131 132 135 138 142 145 146 149
250 296 342 30 42 39 48 67 72 69 47 40 47 52 53 57 59 62 66 71 78 84 89 90 90 92 95 97 100 105 111 116 119 125 128 128 129 132 132 135 139 141 143
243 256 254 264 63 57 53 68 100 84 54 50 56 58 64 64 63 64 65 69 75 82 84 85 88 91 94 96 99 103 107 110 113 118 120 123 127 135 135 136 135 139 138
236 243 245 238 245 186 128 133 104 43 32 50 56 58 63 66 65 64 67 71 75 81 83 88 89 89 90 92 97 101 103 104 109 111 115 123 130 134 138 140 142 142 140
233 236 241 243 238 241 217 209 227 275 338 356 65 76 70 68 69 69 68 67 79 77 80 83 86 88 92 96 101 104 108 113 117 118 123 126 133 137 142 144 143 144 145
231 233 237 237 236 230 235 232 233 253 276 284 277 70 80 81 71 68 72 74 73 78 83 90 93 96 99 101 104 107 112 115 118 123 128 133 135 142 141 143 144 144 149
232 231 232 234 232 227 226 231 232 234 237 244 243 232 189 92 66 57 62 64 76 86 94 91 94 95 95 96 95 96 101 111 125 131 132 139 139 137 143 145 150 154 154
232 230 227 231 231 229 224 227 227 225 220 216 219 223 225 231 227 243 286 18 71 109 118 115 107 103 101 101 99 102 116 127 135 142 146 143 147 151 154 159 163 165 170
229 229 225 227 227 229 225 222 223 224 221 214 210 216 225 227 230 236 242 245 248 254 231 188 168 159 150 137 133 137 138 142 158 162 163 166 168 169 174 175 174 172 170
227 226 223 224 225 225 227 224 225 221 218 214 214 218 220 223 233 236 238 245 249 247 238 226 213 204 199 189 173 170 176 177 184 185 181 180 181 180 181 182 179 178 179
225 223 221 222 223 223 223 225 226 229 229 226 230 233 235 231 231 233 236 246 251 254 250 239 228 219 215 217 222 222 216 204 194 189 187 192 192 189 188 186 190 193 199
224 222 221 221 222 223 224 224 227 228 232 235 237 242 248 251 250 253 259 264 260 257 253 250 245 237 232 231 232 227 227 224 217 207 205 201 200 199 195 193 196 193 196
226 226 225 224 225 227 228 228 228 230 231 236 240 243 247 251 251 251 257 264 271 271 263 253 247 236 230 228 232 228 224 223 223 215 209 207 205 200 196 195 193 192 193
Wind_Speed_850mb
78 84 88 83 75 70 72 76 76 80 82 83 84 86 85 83 76 77 79 79 80 79 79 94 98 79 80 75 79 77 81 84 66 78 86 87 91 89 81 84 89 92 88
77 82 83 81 76 72 71 71 74 80 81 85 88 86 87 86 86 85 86 82 81 82 82 81 89 98 87 87 78 79 81 94 91 94 90 93 94 89 89 88 83 77 78
73 77 78 76 72 68 69 70 72 75 76 77 78 80 80 83 83 81 83 87 85 87 85 82 78 77 81 81 68 70 81 86 109 107 100 102 102 97 95 85 81 74 58
71 74 75 70 67 68 67 67 69 72 76 77 77 78 77 78 77 75 76 78 84 90 90 84 85 84 91 81 77 67 74 89 111 107 109 113 112 100 97 95 79 67 69
65 69 68 67 67 66 67 71 73 74 73 75 75 73 71 68 68 70 73 75 77 85 87 94 91 93 88 91 81 66 76 98 110 109 119 117 117 116 110 97 92 90 80
59 62 63 64 67 67 67 70 73 74 79 79 72 66 59 53 54 59 70 76 80 82 93 93 93 94 90 93 78 76 73 103 126 122 126 132 127 113 113 109 104 101 81
54 58 60 63 67 65 67 69 72 75 73 67 62 62 55 52 52 49 54 48 56 69 77 83 93 96 102 91 82 88 68 116 129 128 126 132 130 124 116 112 106 105 92
49 54 55 60 64 62 65 67 70 69 61 55 67 71 64 55 47 38 21 7 15 31 49 61 71 80 79 71 64 61 87 78 99 118 113 120 118 119 116 119 119 100 95
43 48 52 57 61 60 65 65 63 59 52 55 62 65 81 66 47 45 59 58 44 36 19 26 42 45 56 79 73 89 89 77 76 88 103 116 114 119 126 122 106 97 90
38 42 46 50 54 55 60 59 54 47 49 56 60 61 65 79 70 57 67 77 84 82 84 74 76 84 93 91 97 107 98 89 88 96 106 106 109 104 83 69 76 77 78
30 35 38 40 46 51 53 53 50 49 58 67 74 74 71 71 76 80 82 90 95 101 99 92 85 87 94 101 116 116 120 114 111 111 102 87 81 81 77 71 66 61 73
22 27 30 32 37 40 44 46 49 52 59 66 74 82 86 88 89 92 98 104 105 108 105 102 105 108 107 106 107 102 100 106 115 117 113 106 98 89 81 71 62 56 37
13 18 22 25 28 33 36 40 44 52 61 64 68 74 79 84 87 87 92 99 104 109 110 115 121 124 128 131 131 130 127 124 121 119 114 103 90 84 73 61 55 41 27
6 10 12 16 19 23 24 29 35 45 51 49 52 56 59 63 72 82 86 87 90 93 95 97 100 104 109 114 113 111 111 107 105 103 95 86 77 68 60 49 46 43 43
16 8 5 6 11 17 18 20 30 33 37 40 43 48 56 63 65 60 60 65 69 75 79 83 87 88 89 88 87 86 83 82 83 83 81 77 69 60 55 49 45 43 40
24 16 11 4 5 10 13 12 19 20 23 27 31 36 43 47 48 50 53 55 55 59 68 74 77 78 80 78 77 73 69 67 67 64 64 62 60 55 54 47 40 37 36
32 25 19 17 12 3 7 10 8 6 12 15 21 25 31 36 39 41 44 45 48 48 64 66 67 66 66 64 63 61 60 57 54 52 51 50 48 45 41 43 41 36 38
43 34 28 23 22 20 14 12 11 6 6 5 7 13 19 24 28 32 36 33 39 46 52 54 56 55 54 52 50 49 49 48 44 43 42 40 37 35 38 38 35 33 32
53 46 36 30 28 25 24 22 19 16 12 7 4 3 9 13 16 19 23 25 29 33 37 40 41 41 42 40 39 39 38 38 34 32 33 32 32 30 33 32 32 28 24
58 55 47 39 35 32 30 28 24 20 15 12 9 5 2 1 6 8 11 14 16 17 22 22 27 29 29 29 28 27 26 24 23 23 23 24 27 26 24 26 26 25 25
64 65 58 49 43 36 33 32 30 27 21 17 14 13 12 11 8 4 1 1 2 5 8 13 14 16 17 19 19 16 15 15 16 17 18 20 21 26 25 25 26 24 21
70 71 65 60 49 44 39 34 33 29 25 23 21 18 18 18 16 14 11 10 8 6 6 8 10 11 10 10 11 10 10 10 12 16 19 22 23 25 27 28 27 23 19
74 76 70 67 58 50 46 40 37 33 28 23 22 20 17 15 17 15 13 13 13 14 14 15 17 16 14 12 10 9 8 9 12 15 17 20 23 26 27 26 22 19 16
72 76 73 72 68 61 55 50 44 37 33 29 27 24 19 15 15 14 14 15 14 14 16 18 20 21 18 14 12 15 19 20 19 17 17 18 20 22 23 23 21 23 21
67 71 74 77 75 70 62 59 54 46 42 38 34 30 26 24 22 19 19 19 18 18 17 19 22 23 23 21 21 23 23 20 18 20 23 26 26 28 29 29 28 28 26
60 63 67 71 75 72 69 63 57 52 48 45 41 36 34 33 31 29 28 27 25 25 24 21 24 30 32 34 31 28 27 25 23 24 25 27 28 31 32 31 30 27 23
Wind_Direction_850mb
328 330 330 331 327 320 317 314 308 308 306 301 298 296 292 290 283 280 278 278 272 267 261 250 252 249 247 254 256 251 242 242 217 201 204 198 197 199 192 193 196 194 197
331 333 334 334 332 330 322 318 319 312 308 308 305 299 294 291 289 284 278 274 270 266 262 256 250 246 250 251 256 254 244 245 210 200 189 186 191 191 190 191 188 188 186
335 337 337 337 338 334 330 327 322 320 319 317 312 305 300 295 289 282 275 273 268 265 260 253 247 243 243 251 248 249 247 213 206 205 183 180 184 185 182 182 185 184 180
340 340 341 343 342 339 336 334 334 333 330 327 321 315 310 304 296 287 279 272 269 263 258 253 248 246 244 250 252 248 246 208 198 200 186 179 181 177 184 179 165 167 160
342 343 347 346 346 343 345 346 343 340 335 331 327 322 316 310 303 298 289 279 268 263 260 256 248 244 241 246 249 238 229 204 193 186 174 171 173 173 175 171 166 162 157
344 348 352 350 350 348 354 350 348 345 343 339 340 339 334 325 317 302 289 276 264 258 252 250 248 245 241 243 249 237 250 215 195 190 178 176 174 171 177 178 176 164 147
345 354 356 354 352 354 359 354 354 351 350 348 359 359 359 350 337 320 300 289 263 254 253 249 246 243 244 248 242 231 234 216 216 210 191 185 180 184 182 176 174 171 166
349 357 359 357 354 2 3 2 359 358 354 2 3 12 17 5 358 8 22 316 253 245 245 245 243 242 237 231 223 213 194 187 196 205 210 195 187 185 186 179 175 172 158
354 1 5 2 1 10 10 6 4 2 6 13 14 30 32 25 23 48 60 61 75 84 116 218 228 217 197 197 192 178 176 169 167 175 175 174 176 174 182 180 164 154 152
355 4 10 7 11 20 18 13 13 17 22 31 37 44 48 45 42 60 72 71 66 65 81 95 124 139 151 164 163 169 148 137 154 151 144 142 154 156 159 169 160 163 159
356 7 13 12 25 31 35 28 29 31 44 48 49 50 55 61 64 67 71 74 73 73 68 72 88 115 127 132 135 144 136 134 136 136 134 132 136 143 148 153 158 161 160
355 15 19 24 32 34 45 40 43 47 49 54 57 58 58 58 62 70 77 81 85 79 77 80 88 100 110 114 113 114 123 125 122 122 125 127 136 141 147 151 152 162 161
357 23 29 32 36 44 51 58 56 53 49 49 53 55 59 62 62 62 69 75 80 86 93 101 106 109 111 112 114 114 116 117 122 126 130 136 142 144 144 145 149 152 153
308 14 29 35 34 39 46 66 59 55 50 37 35 43 49 53 57 55 59 62 70 77 85 92 97 101 105 112 113 115 117 123 126 127 130 131 132 135 138 142 145 146 149
250 296 342 30 42 39 48 67 72 69 47 40 47 52 53 57 59 62 66 71 78 84 89 90 90 92 95 97 100 105 111 116 119 125 128 128 129 132 132 135 139 141 143
243 256 254 264 63 57 53 68 100 84 54 50 56 58 64 64 63 64 65 69 75 82 84 85 88 91 94 96 99 103 107 110 113 118 120 123 127 135 135 136 135 139 138
236 243 245 238 245 186 128 133 104 43 32 50 56 58 63 66 65 64 67 71 75 81 83 88 89 89 90 92 97 101 103 104 109 111 115 123 130 134 138 140 142 142 140
233 236 241 243 238 241 217 209 227 275 338 356 65 76 70 68 69 69 68 67 79 77 80 83 86 88 92 96 101 104 108 113 117 118 123 126 133 137 142 144 143 144 145
231 233 237 237 236 230 235 232 233 253 276 284 277 70 80 81 71 68 72 74 73 78 83 90 93 96 99 101 104 107 112 115 118 123 128 133 135 142 141 143 144 144 149
232 231 232 234 232 227 226 231 232 234 237 244 243 232 189 92 66 57 62 64 76 86 94 91 94 95 95 96 95 96 101 111 125 131 132 139 139 137 143 145 150 154 154
232 230 227 231 231 229 224 227 227 225 220 216 219 223 225 231 227 243 286 18 71 109 118 115 107 103 101 101 99 102 116 127 135 142 146 143 147 151 154 159 163 165 170
229 229 225 227 227 229 225 222 223 224 221 214 210 216 225 227 230 236 242 245 248 254 231 188 168 159 150 137 133 137 138 142 158 162 163 166 168 169 174 175 174 172 170
227 226 223 224 225 225 227 224 225 221 218 214 214 218 220 223 233 236 238 245 249 247 238 226 213 204 199 189 173 170 176 177 184 185 181 180 181 180 181 182 179 178 179
225 223 221 222 223 223 223 225 226 229 229 226 230 233 235 231 231 233 236 246 251 254 250 239 228 219 215 217 222 222 216 204 194 189 187 192 192 189 188 186 190 193 199
224 222 221 221 222 223 224 224 227 228 232 235 237 242 248 251 250 253 259 264 260 257 253 250 245 237 232 231 232 227 227 224 217 207 205 201 200 199 195 193 196 193 196
226 226 225 224 225 227 228 228 228 230 231 236 240 243 247 251 251 251 257 264 271 271 263 253 247 236 230 228 232 228 224 223 223 215 209 207 205 200 196 195 193 192 193